Wind_Speed
4 4 5 6 4 4 6 7 8 7 6 5 5 6 7 6 6 7 5 3 1 2 4 7 9 11 11 11 9 9 11 13 13 11 11 10 9 8 7 5 5 4 5 6 4 8 19 26 27
6 6 6 6 4 6 6 7 7 7 7 6 6 6 8 7 8 10 8 7 4 0 3 6 8 10 11 10 8 7 10 12 13 13 12 10 8 7 6 6 6 4 4 6 5 1 12 24 25
7 6 5 4 5 4 6 7 8 8 7 7 7 7 7 7 8 9 10 9 6 3 3 6 8 10 11 10 7 7 9 11 13 14 13 11 8 7 7 7 7 5 4 4 5 1 10 21 23
8 6 4 2 3 4 5 5 6 7 8 8 8 7 7 7 7 8 10 10 8 6 4 5 7 10 11 9 7 6 8 11 12 13 13 11 9 8 7 7 7 6 4 3 4 2 9 19 21
9 7 4 2 4 5 3 4 6 7 10 11 11 9 8 7 7 8 10 10 9 8 5 4 6 9 10 8 8 7 8 10 11 13 14 12 11 9 8 8 6 6 6 3 1 2 5 13 17
8 7 6 2 3 3 2 3 7 9 9 10 10 9 9 7 7 8 10 11 10 8 6 5 6 9 10 9 8 8 9 11 12 14 16 15 13 11 10 9 7 5 6 5 4 2 3 7 11
9 8 5 1 6 5 3 4 8 11 12 12 12 11 9 7 7 7 9 10 10 9 8 7 7 8 10 10 9 9 10 12 14 16 18 17 15 12 11 10 9 7 6 7 7 6 6 7 10
11 9 8 6 9 7 5 5 8 12 11 11 12 11 9 7 7 8 10 11 11 11 9 7 7 8 9 10 10 10 11 13 15 17 19 18 16 13 12 11 10 9 8 8 9 10 10 10 11
11 9 7 6 12 10 8 8 8 11 12 8 9 11 10 8 7 8 9 11 13 12 10 8 8 8 9 10 10 10 11 13 16 17 19 19 16 16 14 13 12 11 10 9 10 13 14 14 14
13 11 10 10 12 11 9 9 11 12 12 8 7 9 11 9 7 6 9 11 12 11 10 10 10 10 10 11 11 11 11 13 16 17 20 20 20 20 17 14 14 12 11 9 9 12 16 17 18
17 15 14 13 13 11 11 11 11 13 14 12 10 8 10 11 9 6 7 10 11 10 10 10 11 12 12 13 13 13 13 13 15 17 20 23 23 22 18 14 15 15 12 10 9 11 15 18 19
19 17 16 15 14 13 13 13 13 13 14 15 16 13 13 14 12 8 8 9 9 11 12 13 12 12 13 14 15 16 16 16 17 19 20 24 23 21 17 16 18 18 15 12 10 11 14 16 18
20 20 18 17 16 16 16 15 16 16 15 16 17 18 17 16 13 11 11 11 12 13 14 14 15 13 13 14 15 17 17 18 19 21 22 24 24 20 18 18 19 18 16 14 13 12 14 14 17
22 20 19 19 19 20 20 19 19 19 18 19 20 19 18 17 16 12 12 13 13 13 15 16 17 15 14 15 16 17 18 19 19 22 23 24 24 20 18 19 21 18 15 14 14 13 14 15 17
22 22 23 23 25 25 25 23 23 23 21 20 21 21 20 19 18 16 13 12 13 13 14 14 15 15 15 15 16 18 19 20 20 22 23 23 23 21 19 20 21 20 15 13 14 15 15 16 17
26 27 26 26 31 30 29 26 28 26 23 22 21 21 20 19 19 18 16 15 15 13 13 13 13 13 15 16 16 17 19 19 20 22 24 23 23 23 21 21 21 20 16 13 15 16 17 16 16
32 34 32 30 34 33 31 31 31 30 26 25 24 22 22 19 19 20 19 19 17 16 15 14 14 14 15 17 18 18 19 20 21 22 23 24 22 23 22 22 22 19 16 15 16 17 17 16 15
37 39 38 35 38 36 31 32 34 34 32 29 27 25 24 22 21 21 21 21 19 18 18 18 16 16 17 19 20 21 22 21 22 23 24 24 23 22 22 23 23 21 18 17 17 18 18 16 15
39 41 43 42 45 43 38 33 33 36 36 34 29 27 26 25 25 23 22 21 20 19 19 18 17 18 19 20 21 22 24 24 24 26 26 25 25 23 22 23 25 24 22 19 18 18 19 16 15
37 39 42 46 50 51 48 45 43 42 39 37 34 31 29 29 30 25 21 20 19 19 19 19 19 20 21 21 22 23 24 25 25 26 27 27 27 27 26 25 26 26 23 20 17 18 19 17 16
31 33 36 37 41 50 53 52 50 44 39 37 35 32 30 30 33 28 23 21 20 19 19 19 20 22 22 23 25 25 24 25 26 27 29 30 30 31 29 27 27 27 24 21 19 18 19 19 18
30 31 31 32 30 30 32 35 35 38 33 30 31 29 28 29 33 31 26 24 21 20 20 20 20 22 23 24 25 25 24 26 29 30 31 33 34 34 32 28 27 27 26 23 23 21 19 19 21
30 29 28 27 29 30 29 27 22 22 23 24 24 25 28 32 33 31 28 26 23 22 21 20 20 21 23 24 25 26 28 31 32 32 32 33 34 33 32 29 27 26 24 24 24 23 21 20 22
30 29 27 26 27 28 26 27 25 23 21 22 23 24 27 30 32 31 28 26 24 22 20 20 21 22 23 25 26 28 30 32 33 32 31 31 31 30 29 27 26 25 23 22 21 22 21 21 21
26 26 26 25 23 23 23 25 25 25 21 19 20 22 25 26 28 28 25 25 23 20 18 20 21 23 25 27 28 28 30 31 31 30 29 29 28 25 25 25 25 24 23 23 22 22 21 22 21
21 23 24 25 21 16 13 16 20 25 26 24 23 23 22 22 23 21 20 19 16 15 18 21 23 24 27 28 27 27 28 28 27 27 27 27 25 22 21 22 21 23 25 26 26 25 25 24 22
17 19 20 24 25 24 20 17 19 22 25 26 27 27 24 18 14 13 13 12 14 18 21 23 24 25 26 26 25 25 26 26 26 25 26 25 22 20 19 18 17 18 20 23 24 25 25 25 24
23 22 21 21 21 20 19 19 19 15 13 14 14 16 17 15 13 14 13 14 18 20 23 24 24 24 24 24 25 25 24 24 23 23 22 22 20 18 18 18 17 16 16 17 18 20 21 22 23
23 23 24 23 23 21 19 18 19 16 14 11 14 18 17 17 17 17 16 17 19 20 22 23 23 23 23 25 24 23 23 24 24 22 19 18 18 17 17 16 17 16 15 16 16 18 19 21 23
21 22 23 22 21 20 22 19 19 15 13 16 18 18 21 21 20 20 21 21 19 20 22 22 22 23 24 25 26 26 26 26 25 21 18 17 17 17 17 17 17 17 17 16 17 17 19 20 21
Wind_Direction
128 137 141 133 132 143 70 54 48 36 21 3 330 300 288 278 261 256 276 250 246 25 22 16 12 12 13 12 13 14 13 10 7 360 353 348 347 351 345 336 326 320 332 344 322 227 215 209 198
133 135 130 123 101 75 44 34 30 23 9 354 335 314 300 287 271 258 260 241 229 313 6 6 7 7 6 6 12 14 9 5 3 357 352 347 342 344 344 341 339 340 354 2 6 301 198 193 190
138 135 134 131 87 32 17 15 19 20 4 343 329 323 312 293 281 258 248 236 227 235 314 344 360 5 1 2 10 12 5 0 359 357 350 342 336 333 328 330 329 330 351 10 16 58 182 182 188
147 134 128 109 32 346 344 356 11 17 4 343 326 323 307 299 284 262 244 239 230 234 280 327 351 2 1 2 7 9 3 357 354 353 346 336 327 320 315 324 324 316 316 344 19 64 186 192 198
153 132 95 25 346 335 305 316 337 351 354 349 337 327 301 291 273 258 248 240 229 233 270 309 339 354 0 3 3 357 353 354 353 350 344 331 321 312 306 307 316 304 291 283 340 61 172 192 199
160 144 104 289 278 320 242 284 308 315 322 331 333 332 311 291 269 253 248 238 228 235 264 291 322 345 358 357 352 346 343 345 347 346 342 334 328 320 308 299 298 298 282 267 245 216 172 176 187
173 171 147 253 255 263 250 299 312 312 315 327 335 337 326 312 284 259 243 234 231 244 257 274 307 333 352 348 342 341 339 340 344 343 337 335 335 330 322 306 294 293 281 266 244 223 210 191 185
196 191 199 227 263 264 275 305 322 332 328 320 321 328 334 325 294 268 246 233 231 246 253 272 301 322 347 349 339 339 338 337 338 340 336 329 330 335 331 318 303 293 279 263 248 229 220 214 207
214 214 219 258 271 274 287 305 317 332 340 322 310 321 331 326 303 269 250 239 232 240 250 263 284 305 331 339 340 337 335 335 332 330 330 323 320 325 329 322 314 302 280 265 252 238 230 226 223
226 232 236 257 265 274 284 305 322 335 344 327 311 323 330 325 312 272 241 237 234 236 246 263 276 288 309 325 338 336 328 328 326 325 329 326 322 321 325 320 319 313 291 272 256 239 235 233 232
231 237 247 254 263 274 284 298 313 325 333 324 306 300 318 323 315 282 242 233 236 245 245 253 272 283 292 307 326 334 329 323 324 326 335 333 326 322 322 319 316 313 300 279 261 241 235 236 236
236 240 247 253 260 268 277 289 303 313 321 319 312 301 298 306 307 283 249 233 239 248 253 257 266 283 290 300 317 326 327 328 332 335 334 333 329 322 319 320 315 306 296 280 261 245 239 240 240
241 241 245 252 259 265 272 282 293 302 307 306 305 304 299 290 291 284 260 245 241 250 259 267 273 282 286 293 308 318 320 324 328 333 330 329 330 327 320 323 325 309 292 276 259 248 242 241 242
245 248 253 258 263 267 272 277 284 289 294 296 300 301 297 284 272 267 263 259 254 255 261 268 276 283 288 292 298 306 312 318 323 334 330 326 328 327 317 317 328 321 298 277 260 251 242 239 242
246 248 254 261 265 267 270 274 279 281 286 289 294 297 295 285 276 270 268 273 273 269 270 275 278 286 293 299 301 303 307 313 315 328 332 327 326 326 317 311 318 322 307 282 262 253 249 245 244
249 253 258 265 269 270 272 274 277 278 280 281 285 291 292 286 279 277 279 284 283 281 284 287 285 288 293 297 301 303 305 309 312 316 323 324 322 322 316 314 315 316 306 284 264 256 255 252 251
253 256 257 259 263 269 272 272 272 274 275 277 280 282 282 280 278 278 280 284 286 286 290 296 296 295 295 297 300 302 304 307 309 310 312 316 317 315 312 311 315 313 300 282 268 258 256 256 254
257 261 262 258 259 261 258 262 264 269 272 271 275 277 275 275 274 275 277 280 281 281 284 291 297 298 298 301 303 303 303 303 302 301 303 306 307 306 305 306 311 311 301 281 266 256 254 253 251
264 263 262 259 262 263 261 251 255 263 266 267 267 270 271 271 271 272 276 280 278 276 279 288 294 298 299 300 302 302 301 301 298 298 301 302 302 301 299 298 301 302 300 282 261 249 249 248 245
271 271 269 263 263 262 259 258 262 263 261 262 265 267 267 267 268 271 277 278 276 275 280 290 297 299 301 302 303 304 304 302 298 298 301 300 299 298 296 294 293 293 293 280 255 241 241 241 241
274 275 272 274 267 261 263 265 264 259 254 257 259 261 260 261 267 271 277 276 274 276 283 290 296 300 303 304 305 306 306 304 302 300 298 297 295 294 294 292 289 287 285 273 254 237 235 235 237
267 270 274 278 273 265 265 265 259 256 246 246 254 255 253 252 258 266 271 272 273 276 281 289 296 299 301 304 305 305 306 305 304 301 298 296 294 293 291 289 286 283 276 265 256 243 236 235 233
267 265 267 270 274 277 280 277 267 252 238 231 237 249 251 248 253 260 262 266 269 272 278 285 291 296 301 305 306 306 305 304 303 301 298 295 292 289 287 284 281 278 268 258 254 245 239 238 236
269 265 263 264 268 269 271 277 278 268 247 235 234 238 245 247 249 253 256 262 264 268 275 285 293 300 305 306 307 307 304 302 301 300 298 295 292 289 283 277 274 271 263 256 252 242 243 244 240
274 266 263 265 269 274 270 272 274 269 253 245 249 243 236 238 240 246 250 254 259 266 278 289 296 303 307 307 308 307 305 302 300 299 297 296 296 291 282 275 270 263 258 255 254 250 252 251 246
275 270 262 261 261 262 268 274 280 281 278 280 285 280 257 240 240 246 250 255 260 271 283 291 298 304 307 306 307 306 304 303 300 299 294 292 290 287 282 278 271 258 251 252 255 255 256 254 252
276 272 263 261 259 262 274 287 289 284 285 285 284 288 291 277 258 254 253 256 269 280 286 292 298 303 303 304 304 301 303 305 304 299 293 287 282 281 283 283 278 265 253 252 257 260 259 255 257
271 263 255 255 258 257 256 253 248 252 262 269 268 265 271 270 254 246 245 266 278 283 288 292 298 300 301 303 305 300 300 305 305 300 293 287 282 280 281 279 280 273 262 260 263 264 261 258 262
258 257 249 245 243 244 239 238 234 217 179 194 243 253 247 245 248 254 265 273 277 284 290 294 297 297 299 301 303 304 304 308 307 301 294 287 281 279 278 277 277 275 270 269 271 268 266 268 269
246 249 248 244 242 243 245 256 262 259 244 220 215 230 240 242 246 255 264 272 279 288 291 291 294 299 302 305 304 305 306 307 304 298 295 289 281 277 274 274 273 273 273 273 273 269 270 275 272
Height
5888 5888 5888 5889 5890 5889 5888 5889 5888 5887 5887 5887 5887 5886 5886 5887 5889 5892 5890 5890 5890 5890 5890 5889 5888 5886 5884 5883 5881 5880 5878 5877 5877 5876 5875 5874 5873 5872 5871 5871 5870 5870 5869 5868 5865 5865 5866 5868 5873
5888 5889 5889 5890 5888 5887 5889 5888 5888 5888 5887 5886 5885 5885 5885 5886 5886 5887 5888 5889 5890 5890 5890 5889 5888 5886 5884 5883 5881 5880 5879 5877 5877 5876 5874 5874 5872 5872 5871 5871 5870 5869 5869 5868 5866 5865 5865 5868 5872
5888 5889 5890 5890 5888 5888 5889 5888 5888 5888 5887 5885 5884 5884 5884 5884 5884 5885 5886 5887 5889 5890 5890 5889 5887 5886 5884 5883 5881 5880 5879 5877 5877 5876 5874 5873 5872 5871 5870 5870 5870 5869 5869 5868 5867 5866 5867 5869 5872
5888 5890 5890 5890 5889 5889 5889 5888 5888 5888 5888 5886 5885 5884 5882 5882 5883 5884 5884 5886 5888 5889 5889 5888 5887 5885 5884 5882 5881 5880 5879 5878 5877 5875 5873 5872 5871 5871 5870 5870 5870 5869 5869 5869 5868 5868 5868 5870 5872
5888 5890 5891 5890 5889 5889 5888 5888 5888 5888 5887 5886 5885 5885 5883 5882 5882 5882 5883 5885 5887 5887 5887 5886 5885 5884 5883 5881 5880 5879 5878 5877 5877 5875 5873 5871 5870 5870 5870 5870 5869 5869 5869 5869 5869 5869 5869 5870 5871
5888 5890 5890 5888 5888 5890 5889 5888 5888 5888 5887 5887 5886 5885 5883 5882 5882 5882 5882 5884 5885 5886 5886 5885 5884 5883 5882 5881 5880 5879 5878 5877 5876 5875 5873 5871 5870 5870 5869 5869 5869 5868 5868 5869 5870 5870 5870 5871 5871
5888 5890 5889 5887 5889 5890 5889 5888 5888 5887 5887 5886 5885 5885 5883 5882 5882 5882 5882 5883 5884 5885 5885 5884 5884 5883 5882 5881 5880 5878 5877 5877 5876 5875 5873 5871 5870 5869 5869 5868 5868 5868 5868 5868 5869 5870 5870 5871 5872
5886 5889 5889 5890 5889 5889 5888 5888 5887 5887 5886 5885 5884 5884 5883 5882 5881 5881 5881 5882 5883 5883 5884 5884 5884 5883 5882 5880 5879 5877 5876 5875 5875 5874 5872 5870 5869 5868 5868 5867 5866 5867 5867 5867 5868 5869 5869 5870 5871
5885 5889 5889 5889 5889 5888 5887 5887 5887 5886 5885 5884 5883 5882 5882 5881 5880 5880 5880 5881 5882 5882 5882 5883 5883 5882 5881 5879 5878 5876 5875 5874 5874 5873 5871 5869 5868 5866 5867 5866 5865 5865 5865 5865 5866 5867 5868 5869 5870
5884 5887 5888 5888 5888 5888 5887 5886 5885 5885 5884 5883 5883 5882 5881 5880 5879 5878 5878 5879 5880 5881 5881 5881 5881 5880 5879 5878 5876 5875 5874 5874 5873 5872 5870 5868 5866 5865 5864 5864 5864 5863 5863 5863 5864 5864 5865 5866 5867
5882 5884 5886 5886 5887 5887 5886 5886 5884 5884 5882 5881 5881 5882 5880 5879 5878 5877 5877 5878 5878 5878 5879 5880 5879 5878 5877 5876 5875 5873 5872 5871 5871 5870 5869 5867 5865 5863 5862 5862 5861 5861 5861 5861 5861 5861 5862 5863 5865
5880 5882 5883 5884 5885 5885 5885 5884 5883 5882 5882 5880 5878 5878 5878 5877 5877 5876 5876 5876 5877 5877 5877 5877 5877 5876 5874 5873 5873 5871 5870 5869 5869 5868 5867 5865 5864 5862 5861 5861 5859 5858 5858 5858 5859 5859 5860 5861 5862
5877 5879 5880 5881 5882 5882 5882 5882 5881 5880 5880 5878 5877 5875 5875 5876 5875 5874 5874 5874 5875 5875 5875 5874 5874 5873 5872 5871 5870 5869 5868 5868 5867 5866 5864 5862 5861 5860 5859 5859 5857 5855 5855 5856 5856 5857 5857 5858 5859
5874 5876 5877 5878 5879 5879 5879 5878 5878 5877 5877 5876 5875 5874 5873 5872 5872 5872 5872 5872 5873 5873 5873 5872 5871 5870 5869 5868 5867 5867 5866 5865 5865 5864 5862 5860 5858 5857 5856 5856 5855 5853 5852 5853 5854 5855 5855 5855 5856
5871 5872 5873 5874 5873 5874 5874 5875 5874 5873 5873 5872 5871 5871 5870 5869 5868 5868 5869 5869 5870 5870 5870 5869 5868 5867 5866 5865 5864 5863 5862 5862 5861 5860 5859 5857 5855 5854 5853 5853 5853 5851 5850 5850 5851 5852 5853 5853 5853
5867 5867 5869 5870 5868 5868 5871 5872 5869 5869 5869 5868 5867 5867 5866 5866 5865 5864 5865 5866 5866 5866 5866 5866 5864 5863 5862 5861 5860 5860 5859 5858 5858 5857 5856 5855 5853 5851 5851 5850 5849 5849 5848 5848 5848 5849 5850 5850 5851
5862 5861 5862 5864 5862 5862 5863 5865 5864 5864 5865 5865 5864 5863 5862 5863 5863 5862 5862 5862 5862 5862 5862 5862 5860 5859 5858 5856 5855 5855 5855 5855 5853 5853 5853 5851 5850 5849 5848 5847 5845 5845 5845 5845 5845 5845 5846 5847 5848
5857 5856 5857 5857 5853 5855 5855 5856 5858 5858 5859 5860 5860 5860 5859 5858 5859 5859 5859 5859 5858 5858 5858 5858 5857 5855 5854 5853 5852 5851 5851 5851 5850 5849 5849 5848 5847 5846 5845 5844 5842 5841 5841 5842 5842 5842 5843 5843 5844
5849 5850 5850 5850 5847 5848 5848 5846 5849 5852 5853 5854 5855 5856 5855 5854 5853 5854 5855 5855 5855 5855 5854 5854 5853 5852 5851 5850 5849 5848 5847 5847 5847 5845 5844 5843 5843 5842 5842 5840 5838 5837 5837 5837 5837 5838 5839 5840 5840
5841 5841 5841 5842 5840 5839 5840 5839 5840 5843 5846 5847 5849 5850 5850 5849 5847 5849 5850 5851 5851 5850 5849 5849 5848 5847 5846 5845 5844 5844 5842 5842 5841 5839 5838 5838 5837 5837 5836 5835 5833 5833 5833 5832 5833 5833 5834 5836 5837
5832 5831 5831 5831 5831 5830 5829 5830 5832 5833 5836 5839 5840 5843 5843 5843 5840 5843 5845 5845 5846 5845 5844 5843 5843 5842 5841 5840 5839 5838 5837 5836 5835 5834 5832 5831 5830 5830 5829 5828 5827 5827 5828 5828 5828 5828 5829 5831 5833
5823 5822 5822 5822 5822 5821 5820 5819 5823 5824 5825 5829 5832 5834 5836 5837 5834 5836 5839 5839 5839 5839 5839 5839 5838 5837 5837 5836 5835 5834 5832 5831 5829 5828 5826 5824 5823 5822 5821 5821 5820 5820 5821 5822 5823 5823 5825 5826 5828
5814 5814 5814 5814 5814 5815 5814 5814 5818 5816 5816 5819 5822 5824 5828 5830 5829 5831 5832 5833 5833 5833 5834 5834 5834 5833 5833 5831 5830 5828 5826 5825 5823 5821 5819 5817 5815 5814 5813 5813 5812 5812 5813 5815 5816 5817 5819 5821 5823
5806 5806 5807 5807 5806 5808 5808 5809 5811 5810 5811 5813 5814 5816 5818 5821 5823 5823 5825 5826 5827 5828 5829 5829 5829 5828 5828 5826 5825 5823 5821 5818 5816 5813 5812 5810 5808 5806 5806 5805 5805 5804 5806 5807 5809 5811 5813 5816 5818
5800 5801 5801 5801 5801 5802 5802 5803 5805 5805 5805 5807 5808 5810 5811 5813 5815 5817 5819 5820 5821 5823 5824 5825 5824 5823 5822 5820 5818 5816 5814 5811 5809 5807 5805 5802 5801 5799 5798 5798 5798 5798 5800 5801 5804 5806 5808 5810 5812
5793 5794 5796 5796 5797 5796 5796 5798 5800 5800 5801 5802 5803 5804 5805 5806 5808 5811 5813 5815 5816 5818 5819 5819 5818 5817 5815 5814 5812 5809 5807 5805 5803 5801 5799 5796 5795 5793 5792 5791 5791 5792 5794 5796 5798 5800 5803 5805 5807
5786 5787 5788 5789 5789 5791 5793 5795 5796 5796 5796 5796 5797 5799 5800 5801 5803 5806 5808 5810 5812 5813 5814 5813 5812 5811 5809 5808 5806 5804 5801 5799 5797 5795 5793 5791 5789 5788 5787 5786 5786 5787 5788 5790 5792 5794 5796 5799 5801
5782 5781 5782 5783 5784 5787 5790 5792 5792 5790 5791 5791 5792 5793 5795 5797 5798 5800 5801 5805 5807 5808 5807 5806 5806 5805 5804 5802 5801 5798 5796 5794 5792 5789 5787 5785 5784 5783 5782 5782 5783 5783 5785 5786 5787 5788 5790 5792 5795
5774 5773 5773 5776 5778 5781 5783 5786 5783 5782 5781 5785 5787 5790 5791 5793 5795 5797 5797 5800 5802 5802 5801 5800 5800 5800 5799 5798 5795 5792 5790 5788 5786 5784 5782 5780 5779 5779 5779 5779 5779 5780 5781 5782 5783 5784 5785 5787 5788
5765 5765 5766 5769 5771 5773 5776 5781 5774 5776 5777 5777 5779 5783 5786 5788 5790 5792 5794 5795 5796 5796 5796 5796 5795 5794 5793 5792 5789 5787 5784 5782 5781 5780 5777 5775 5774 5775 5775 5775 5776 5776 5777 5778 5779 5779 5781 5782 5783